Snowfall_Accumulation
0.0 0.0 0.0 0.0 0.0 0.0 0.0 0.0 0.0 0.0 0.0 0.0 0.0 0.0 0.0 0.0 0.0 0.0 0.0 0.0 0.0 0.0 0.0 0.0 0.0 0.0 0.0 0.0 0.0 0.0 0.0 0.0 0.0 0.0 0.0 0.0 0.0 0.0 0.0 0.0 0.0 0.0 0.0 0.0 0.0 0.0 0.0
0.0 0.0 0.0 0.0 0.0 0.0 0.0 0.0 0.0 0.0 0.0 0.0 0.0 0.0 0.0 0.0 0.0 0.0 0.0 0.0 0.0 0.0 0.0 0.0 0.0 0.0 0.0 0.0 0.0 0.0 0.0 0.0 0.0 0.0 0.0 0.0 0.0 0.0 0.0 0.0 0.0 0.0 0.0 0.0 0.0 0.0 0.0
0.0 0.0 0.0 0.0 0.0 0.0 0.0 0.0 0.0 0.0 0.0 0.0 0.0 0.0 0.0 0.0 0.0 0.0 0.0 0.0 0.0 0.0 0.0 0.0 0.0 0.0 0.0 0.0 0.0 0.0 0.0 0.0 0.0 0.0 0.0 0.0 0.0 0.0 0.0 0.0 0.0 0.0 0.0 0.0 0.0 0.0 0.0
0.0 0.0 0.0 0.0 0.0 0.0 0.0 0.0 0.0 0.0 0.0 0.0 0.0 0.0 0.0 0.0 0.0 0.0 0.0 0.0 0.0 0.0 0.0 0.0 0.0 0.0 0.0 0.0 0.0 0.0 0.0 0.0 0.0 0.0 0.0 0.0 0.0 0.0 0.0 0.0 0.0 0.0 0.0 0.3 0.0 0.0 0.0
0.0 0.0 0.0 0.0 0.0 0.0 0.0 0.0 0.0 0.0 0.0 0.0 0.0 0.0 0.0 0.0 0.0 0.0 0.0 0.0 0.0 0.0 0.0 0.0 0.0 0.0 0.0 0.0 0.0 0.0 0.0 0.0 0.0 0.0 0.0 0.0 0.0 0.0 0.0 0.7 1.3 0.1 1.3 0.0 0.0 0.0 0.0
0.0 0.0 0.0 0.0 0.0 0.0 0.0 0.0 0.0 0.0 0.0 0.0 0.0 0.0 0.0 0.0 0.0 0.0 0.0 0.0 0.0 0.0 0.0 0.0 0.0 0.0 0.0 0.0 0.0 0.0 0.0 0.0 0.0 0.0 0.0 0.0 0.0 1.3 0.5 3.2 9.9 0.6 1.1 0.1 0.1 0.0 0.0
0.0 0.0 0.0 0.0 0.0 0.0 0.0 0.0 0.0 0.0 0.0 0.0 0.0 0.0 0.0 0.0 0.0 0.0 0.0 0.0 0.0 0.0 0.0 0.0 0.0 0.0 0.0 0.0 0.0 0.0 0.0 0.0 0.0 0.0 0.1 0.0 7.8 3.9 1.6 0.1 0.7 1.2 0.9 0.6 0.0 0.0 0.0
0.0 0.0 0.0 0.0 0.0 0.0 0.0 0.0 0.0 0.0 0.0 0.0 0.0 0.0 0.0 0.0 0.0 0.0 0.0 0.0 0.0 0.0 0.0 0.0 0.0 0.0 0.0 0.0 0.0 0.0 0.0 0.0 0.0 0.3 0.0 0.5 4.2 0.0 0.0 0.2 1.1 1.4 1.3 1.2 0.0 0.0 0.0
0.0 0.0 0.0 0.0 0.0 0.0 0.0 0.0 0.0 0.0 0.0 0.0 0.0 0.0 0.0 0.0 0.0 0.0 0.0 0.0 0.0 0.0 1.5 0.0 0.0 0.0 0.0 0.0 0.0 0.0 0.0 0.0 0.0 1.1 0.4 1.7 0.0 0.0 0.0 0.2 2.9 1.7 2.0 1.1 0.2 0.0 0.0
0.0 0.0 0.0 0.0 0.0 0.0 0.0 0.0 0.0 0.0 0.0 0.0 0.0 0.0 0.0 0.0 0.0 0.0 0.0 0.0 0.0 0.0 9.5 5.4 0.0 0.0 0.0 0.0 0.0 0.0 0.0 0.0 0.1 1.5 1.0 1.0 0.0 0.0 0.8 2.5 2.0 3.5 0.0 0.4 1.3 2.6 3.9
0.0 0.0 0.0 0.0 0.0 0.0 0.0 0.0 0.0 0.0 0.0 0.0 0.0 0.0 0.0 0.0 0.0 0.0 0.0 0.0 0.0 0.0 25.7 0.0 0.1 0.0 0.0 0.0 0.0 0.0 0.0 0.0 0.5 1.1 2.1 3.6 0.0 0.0 1.0 2.6 0.1 0.6 0.0 0.2 1.2 1.8 2.5
0.0 0.0 0.0 0.0 0.0 0.0 0.0 0.0 0.0 0.0 0.0 0.0 0.0 0.0 0.0 0.0 0.0 0.0 0.0 0.0 0.0 11.5 28.9 6.4 0.0 0.0 0.0 0.0 0.0 0.0 0.0 0.0 0.0 1.7 2.3 0.8 0.0 0.0 0.0 0.0 0.0 0.0 0.5 0.4 0.3 2.5 9.1
0.0 0.0 0.0 0.0 0.0 0.0 0.0 0.0 0.0 0.0 0.0 0.0 0.0 0.0 0.0 0.0 0.0 0.0 0.0 0.0 14.9 18.2 0.8 2.2 0.0 0.0 0.3 0.0 0.0 0.0 0.3 4.1 7.5 18.5 14.9 2.3 0.0 0.1 0.0 0.0 1.7 1.1 4.9 14.4 16.3 15.5 3.5
0.0 0.0 0.0 0.0 0.0 0.0 0.0 0.0 0.0 0.0 0.0 0.0 0.0 0.0 0.0 0.0 0.0 0.0 0.0 3.0 20.8 5.7 2.0 0.0 0.0 0.0 0.3 0.0 0.0 0.1 0.3 6.2 1.5 2.6 7.4 13.2 12.5 0.3 0.0 0.1 3.4 0.5 1.1 13.0 16.3 11.5 5.0
0.0 0.0 0.0 0.0 0.0 0.0 0.0 0.0 0.0 0.0 0.0 0.0 0.0 0.0 0.0 0.0 0.0 0.0 0.0 7.4 14.2 5.5 0.3 0.2 0.0 1.0 1.5 0.0 0.1 0.0 0.3 5.1 4.7 2.9 10.6 11.9 6.9 0.0 0.0 0.0 0.0 0.9 2.9 0.0 5.5 2.9 5.7
0.0 0.0 0.0 0.0 0.0 0.0 0.0 0.0 0.0 0.0 0.0 0.0 0.0 0.0 0.0 0.0 0.0 0.0 4.9 8.8 3.7 0.2 1.0 0.2 2.2 1.2 1.6 0.5 1.0 1.0 0.6 3.0 3.5 2.0 4.5 4.9 6.0 0.0 0.0 0.0 0.0 0.2 0.0 1.8 5.7 6.9 6.3
0.0 0.0 0.0 0.0 0.0 0.0 0.0 0.0 0.0 0.0 0.0 0.0 0.0 0.0 0.0 0.0 0.0 0.0 12.7 7.3 0.1 0.0 0.0 1.2 1.3 2.3 1.5 1.9 0.7 0.1 1.6 0.3 1.1 0.4 0.9 3.3 5.2 1.1 0.3 1.2 1.2 0.5 1.3 0.8 0.9 1.1 3.6
0.0 0.0 0.0 0.0 0.0 0.0 0.0 0.0 0.0 0.0 0.0 0.0 0.0 6.6 0.0 0.0 2.0 4.3 5.8 2.8 0.0 0.0 0.0 0.2 0.1 0.7 1.3 0.7 2.0 0.1 0.2 0.1 0.7 2.0 1.6 1.1 4.5 4.0 0.5 0.1 0.0 0.4 0.0 0.0 3.5 1.3 2.6
0.0 0.0 0.0 0.0 0.0 0.0 0.0 0.0 0.0 0.0 0.0 0.0 2.8 1.2 0.0 0.0 7.6 3.6 0.4 0.0 0.9 1.0 0.4 1.6 1.5 1.7 1.4 0.9 5.8 0.0 3.1 1.2 0.3 1.3 2.1 2.0 5.0 5.7 4.6 0.8 1.4 2.9 2.7 0.8 0.2 0.8 3.4
0.0 0.0 0.0 0.0 0.0 0.0 0.0 0.0 0.0 0.0 0.0 0.0 3.0 7.8 0.0 0.0 0.0 3.1 4.4 1.1 0.7 0.0 1.1 1.1 1.4 0.1 2.5 1.0 0.1 4.4 3.6 2.8 1.6 1.2 0.6 4.8 4.4 3.2 5.4 9.1 8.9 8.4 3.6 2.0 1.8 7.2 0.6
0.0 0.0 0.0 0.0 0.0 0.0 0.0 0.0 0.0 0.0 0.0 0.0 3.4 3.1 0.1 5.4 0.7 2.4 3.6 3.0 2.1 2.8 0.2 0.9 1.8 1.6 4.1 5.4 1.3 1.0 0.4 0.2 0.0 1.0 1.7 4.3 3.2 0.3 0.7 1.2 3.8 4.8 3.7 2.7 4.3 0.9 2.9
0.0 0.0 0.0 0.0 0.0 0.0 0.0 0.0 0.0 0.0 0.0 0.0 4.3 4.4 1.8 2.5 0.4 1.0 1.5 2.2 0.8 1.1 2.4 1.8 2.0 1.1 0.9 3.5 3.1 3.7 2.5 0.4 2.2 1.4 4.8 3.1 4.7 4.8 5.6 1.5 1.6 3.3 2.1 1.9 1.0 0.9 0.2
0.0 0.0 0.0 0.0 0.0 0.0 0.0 0.0 0.0 0.0 0.0 0.0 1.0 0.8 6.1 1.6 0.4 1.2 1.3 1.5 2.1 1.0 0.1 0.0 0.5 0.7 0.5 0.2 0.0 0.0 0.0 1.8 2.9 3.3 1.7 6.1 8.9 11.7 10.7 1.4 3.4 4.1 6.1 5.5 6.0 7.0 4.7
0.0 0.0 0.0 0.0 0.0 0.0 0.0 0.0 0.0 0.0 0.0 0.0 0.0 1.7 13.1 7.4 0.7 0.3 0.0 0.4 0.5 0.3 1.7 0.0 0.0 0.5 0.0 0.0 0.0 0.0 0.3 2.6 2.5 2.6 1.6 4.3 7.8 11.1 16.6 11.0 22.4 9.5 2.5 2.5 6.3 6.8 6.9
0.0 0.0 0.0 0.0 0.0 0.0 0.0 0.0 0.0 0.0 0.0 0.0 0.0 1.4 12.5 11.3 0.2 0.1 0.5 0.4 0.0 0.0 0.2 0.1 0.0 0.0 0.0 0.0 0.8 2.0 1.8 1.3 0.6 0.9 2.1 3.0 5.6 10.7 15.7 14.1 12.1 7.0 7.0 9.3 7.9 8.7 6.0
0.0 0.0 0.0 0.0 0.0 0.0 0.0 0.0 0.0 0.0 0.0 0.0 0.0 0.0 6.5 15.1 1.5 0.2 0.4 0.0 1.1 0.8 0.1 0.0 0.0 0.0 0.0 0.6 2.8 6.3 3.2 0.5 1.8 0.6 0.1 0.4 2.6 9.5 13.2 15.2 11.5 10.1 10.6 11.6 5.0 7.3 4.0
0.0 0.0 0.0 0.0 0.0 0.0 0.0 0.0 0.0 0.0 0.0 0.0 0.0 0.0 1.3 16.7 0.2 0.0 0.8 0.6 0.0 0.5 1.5 0.0 0.0 0.0 0.0 1.1 5.0 4.9 2.7 1.1 1.0 3.8 2.2 1.0 3.2 10.0 10.1 14.9 8.8 7.8 6.5 7.2 12.7 11.0 5.5
0.0 0.0 0.0 0.0 0.0 0.0 0.0 0.0 0.0 0.0 0.0 0.0 0.0 0.0 0.0 13.2 0.6 0.0 0.0 0.1 0.2 0.1 3.4 0.1 1.1 0.0 1.4 4.7 6.0 1.5 3.5 1.6 2.7 2.3 7.1 6.3 6.8 5.9 7.9 16.3 10.4 2.6 2.1 9.7 11.6 5.4 5.6
0.0 0.0 0.0 0.0 0.0 0.0 0.0 0.0 0.0 0.0 0.0 0.0 0.0 0.0 0.0 2.8 0.9 0.0 0.0 0.0 0.0 0.0 0.4 1.1 0.7 0.8 2.7 5.4 3.2 5.2 6.1 3.6 2.4 4.2 0.9 8.1 8.4 11.5 8.9 11.9 8.4 5.3 8.7 7.7 4.1 2.5 2.2